[[{"header":{"parameterUnit":"m.s-1","parameterCategory":1,"la1":30.2992,"la2":30.254,"lo1":-89.0895,"lo2":-89.0443,"dy":0.0025,"dx":0.0025,"nx":19,"ny":19,"refTime":"2026-05-21T09:00:00:Z","depth":0,"parameterNumber":2,"parameterNumberName":"U-component_of_WINDS"},"data":[0,0,0,1.2275,1.2274,1.2221,1.2221,1.2154,1.2153,0,0,0,0,0,0,0,0,0,0,0,1.2291,1.2291,1.2275,1.2274,1.2222,1.2221,1.2154,1.2153,0,0,0,0,0,0,0,0,0,0,0,1.2292,1.2291,1.2291,1.2274,1.2222,1.2221,1.2154,1.2194,0,0,0,0,0,0,0,0,0,0,1.2244,1.2261,1.2291,1.2291,1.2273,1.2222,1.2221,1.2196,1.2191,1.2178,0,1.2168,0,1.216,1.2149,1.2149,0,0,0,1.2273,1.2264,1.225,1.2291,1.2273,1.2222,1.2245,1.2193,1.2188,1.2172,1.2167,1.2164,1.2159,1.2149,1.2148,1.208,1.208,0,0,1.2276,1.2282,1.2253,1.2247,1.2256,1.2246,1.2243,1.219,1.2184,1.2167,1.2163,1.2158,1.2148,1.2148,1.208,1.208,0,0,0,1.2285,1.2284,1.2271,1.2249,1.224,1.2245,1.2241,1.2186,1.2181,1.2162,1.2157,1.2148,1.2147,1.2081,1.208,1.2074,0,0,0,1.2286,1.229,1.2272,1.2276,1.2241,1.2213,1.2239,1.2185,1.2179,1.2157,1.2148,1.2146,1.2081,1.2081,1.2075,1.207,0,0,0,1.2295,1.229,1.2283,1.2276,1.2254,1.2213,1.2205,1.2184,1.2176,1.2149,1.2146,1.2081,1.2081,1.2076,1.2071,1.2054,0,0,0,1.2305,1.2277,1.2283,1.2251,1.2254,1.2211,1.2206,1.2172,1.2149,1.2148,1.2081,1.208,1.2076,1.2071,1.2055,1.204,1.2035,0,0,1.2274,1.2274,1.2254,1.2258,1.2215,1.2218,1.2174,1.2145,1.2135,1.2099,1.2097,1.2075,1.2071,1.2054,1.2005,1.2002,0,0,0,1.2247,1.2233,1.222,1.2199,1.2177,1.2158,1.2136,1.2126,1.2095,1.2119,1.2064,1.2061,1.2051,1.2044,1.2041,1.2031,1.2078,1.2078,1.2078,1.2212,1.2203,1.217,1.2155,1.2135,1.2113,1.2095,1.2077,1.2073,1.206,1.2049,1.2021,1.2013,1.201,1.2,1.2041,1.2041,1.2041,1.2041,1.2165,1.2144,1.2142,1.2109,1.2099,1.2071,1.2049,1.2048,1.202,1.2028,1.2019,1.2028,1.2006,1.1997,1.204,1.2041,1.2041,1.2041,1.2041,1.2141,1.2129,1.2118,1.2087,1.2064,1.205,1.2024,1.2016,1.2008,1.1999,1.1986,1.1986,1.1985,1.1994,1.1994,1.1993,1.1993,1.1993,1.1993,1.2119,1.2107,1.2087,1.2063,1.2049,1.2029,1.2008,1.1993,1.1975,1.1971,1.1971,1.1968,1.2006,1.2015,1.1992,1.1992,1.1992,1.1992,1.1992,1.2075,1.2084,1.2052,1.2038,1.201,1.1988,1.1979,1.195,1.1937,1.1924,1.1924,1.1954,1.1952,1.1955,1.1963,1.1927,1.1927,1.1927,1.1927,1.2053,1.2053,1.2019,1.1998,1.1975,1.1965,1.1929,1.1912,1.1896,1.1887,1.1892,1.1902,1.1905,1.1901,1.1905,1.1912,1.1864,1.1864,1.1864,1.2025,1.2023,1.1994,1.198,1.1958,1.1939,1.1905,1.1879,1.1863,1.1861,1.188,1.1883,1.1899,1.1904,1.1902,1.1908,1.1921,0,0]},{"header":{"parameterUnit":"m.s-1","parameterCategory":1,"la1":30.2992,"la2":30.254,"lo1":-89.0895,"lo2":-89.0443,"dy":0.0025,"dx":0.0025,"nx":19,"ny":19,"refTime":"2026-05-21T09:00:00:Z","depth":0,"parameterNumber":3,"parameterNumberName":"V-component_of_WINDS"},"data":[0,0,0,1.6932,1.6937,1.7196,1.7197,1.7482,1.7484,0,0,0,0,0,0,0,0,0,0,0,1.683,1.6831,1.6931,1.6937,1.7196,1.7197,1.7482,1.7484,0,0,0,0,0,0,0,0,0,0,0,1.683,1.6831,1.6832,1.6938,1.7195,1.7197,1.7481,1.7302,0,0,0,0,0,0,0,0,0,0,1.7058,1.6941,1.6831,1.6832,1.6939,1.7195,1.7197,1.7294,1.7313,1.7346,0,1.7372,0,1.7432,1.7501,1.7502,0,0,0,1.6955,1.6925,1.7017,1.6833,1.6941,1.7195,1.7084,1.7305,1.7326,1.7371,1.7376,1.7388,1.7437,1.7502,1.7504,1.764,1.7639,0,0,1.6941,1.6863,1.7002,1.703,1.699,1.7076,1.7092,1.7319,1.7318,1.7377,1.7395,1.7442,1.7504,1.7506,1.764,1.764,0,0,0,1.6888,1.6852,1.694,1.7017,1.7067,1.7083,1.7101,1.7308,1.7343,1.7399,1.7445,1.7505,1.7508,1.764,1.764,1.7554,0,0,0,1.688,1.6821,1.6933,1.6888,1.7062,1.7191,1.7085,1.7327,1.7356,1.7444,1.7506,1.7511,1.7641,1.764,1.7557,1.7526,0,0,0,1.6822,1.6815,1.6844,1.6883,1.6992,1.719,1.7239,1.7335,1.7383,1.7502,1.7512,1.7641,1.764,1.756,1.7531,1.7538,0,0,0,1.6737,1.6764,1.6841,1.6889,1.6989,1.7135,1.7238,1.735,1.7442,1.7507,1.7641,1.764,1.7561,1.7534,1.7541,1.753,1.7519,0,0,1.6728,1.676,1.6795,1.6871,1.6984,1.7102,1.7201,1.7358,1.744,1.7567,1.7572,1.7556,1.7531,1.7539,1.7483,1.7473,0,0,0,1.6766,1.6789,1.6836,1.692,1.7041,1.7141,1.7292,1.7349,1.7462,1.7491,1.7563,1.7551,1.7559,1.7557,1.7549,1.756,1.7636,1.7636,1.7636,1.6642,1.6745,1.6808,1.6941,1.7021,1.7174,1.7247,1.7351,1.7432,1.7447,1.7486,1.7439,1.7435,1.7429,1.7439,1.7489,1.7489,1.7488,1.7488,1.6637,1.6686,1.6792,1.6891,1.6998,1.7082,1.7228,1.7282,1.7373,1.7419,1.7431,1.7472,1.7415,1.7429,1.7483,1.7484,1.7484,1.7485,1.7485,1.6568,1.6609,1.6679,1.6809,1.6897,1.703,1.7113,1.7208,1.7297,1.7309,1.7359,1.7361,1.7373,1.7326,1.7326,1.7326,1.7326,1.7326,1.7325,1.6467,1.6549,1.6608,1.6736,1.6801,1.6899,1.705,1.7116,1.7213,1.7275,1.7276,1.7353,1.7391,1.7398,1.7323,1.7324,1.7324,1.7324,1.7324,1.6425,1.6449,1.654,1.6605,1.6762,1.6841,1.696,1.7085,1.7153,1.719,1.7265,1.7277,1.7317,1.7324,1.7331,1.7243,1.7243,1.7243,1.7243,1.6365,1.6394,1.6508,1.6605,1.671,1.6826,1.6922,1.7038,1.7162,1.7209,1.7236,1.7252,1.7255,1.7293,1.7301,1.7309,1.7218,1.7218,1.7218,1.6344,1.6387,1.6452,1.6575,1.6704,1.6811,1.6903,1.7007,1.7153,1.7219,1.7248,1.7249,1.7277,1.7281,1.7348,1.7358,1.7374,0,0]}]]